Location: Peterborough
(44.3091°N, 78.3197°W)
Time: 06:49:12
(UTC-04:00)

Vanguard 3 - Pass Details

Date: 31 March 2023
Orbit: 507 x 3246 km, 33.4° (Epoch: 04 June)

Event Time Altitude Azimuth Distance (km) Brightness Sun altitude
Rises 07:52:52 0° 277° (W) 7,167 11.3 9.2°
Reaches altitude 10° 07:58:08 10° 271° (W) 6,185 11.0 10.2°
Maximum altitude 08:15:07 39° 212° (SSW) 3,793 10.5 13.2°
Drops below altitude 10° 08:27:57 10° 150° (SSE) 4,699 11.7 15.5°
Sets 08:31:21 0° 142° (SE) 5,357 12.1 16.1°
